Location: Sternwarte Stuttgart
(48.7670°N, 9.1830°E)
Time: 06:16:45
(UTC+02:00)

Cosmos 1269 Rocket - Pass Details

Date: 24 January 2019
Orbit: 772 x 779 km, 74.1° (Epoch: 17 April)

Event Time Altitude Azimuth Distance (km) Brightness Sun altitude
Exits shadow 05:07:16 52° 20° (NNE) 958 4.5 -28.8°
Drops below altitude 10° 05:11:15 10° 23° (NNE) 2,331 6.8 -28.1°
Sets 05:13:38 0° 24° (NNE) 3,262 7.6 -27.7°
